[[{"header":{"parameterUnit":"m.s-1","parameterCategory":1,"la1":30.2992,"la2":30.254,"lo1":-89.0895,"lo2":-89.0443,"dy":0.0025,"dx":0.0025,"nx":19,"ny":19,"refTime":"2026-03-19T03:00:00:Z","depth":0,"parameterNumber":2,"parameterNumberName":"U-component_of_WINDS"},"data":[0,0,0,0.3791,0.3792,0.3846,0.3846,0.3913,0.3914,0,0,0,0,0,0,0,0,0,0,0,0.3774,0.3774,0.3791,0.3792,0.3846,0.3846,0.3913,0.3914,0,0,0,0,0,0,0,0,0,0,0,0.3773,0.3774,0.3774,0.3792,0.3846,0.3846,0.3913,0.3873,0,0,0,0,0,0,0,0,0,0,0.3821,0.3804,0.3774,0.3774,0.3793,0.3846,0.3846,0.3871,0.3875,0.3888,0,0.3899,0,0.3907,0.3918,0.3918,0,0,0,0.3793,0.38,0.3816,0.3775,0.3793,0.3846,0.3822,0.3874,0.3879,0.3893,0.39,0.3902,0.3908,0.3919,0.3919,0.3985,0.3985,0,0,0.379,0.3783,0.3812,0.3819,0.3811,0.382,0.3824,0.3877,0.3883,0.39,0.3904,0.3909,0.3919,0.392,0.3985,0.3985,0,0,0,0.3781,0.3781,0.3795,0.3816,0.3826,0.3822,0.3826,0.388,0.3886,0.3904,0.391,0.3919,0.392,0.3985,0.3985,0.3991,0,0,0,0.3779,0.3776,0.3794,0.379,0.3825,0.3854,0.3828,0.3882,0.3888,0.391,0.3919,0.3921,0.3984,0.3985,0.399,0.3995,0,0,0,0.3771,0.3775,0.3782,0.379,0.3813,0.3853,0.3862,0.3883,0.3892,0.3918,0.3921,0.3984,0.3985,0.399,0.3994,0.401,0,0,0,0.376,0.3788,0.3782,0.3815,0.3812,0.3856,0.3861,0.3895,0.3919,0.392,0.3984,0.3985,0.3989,0.3993,0.4009,0.4022,0.4026,0,0,0.3791,0.3791,0.3811,0.3808,0.3851,0.3849,0.3893,0.3922,0.3931,0.3966,0.3968,0.399,0.3994,0.401,0.4055,0.4059,0,0,0,0.3819,0.3833,0.3846,0.3868,0.3889,0.3908,0.393,0.3941,0.3971,0.3948,0.4001,0.4003,0.4012,0.4019,0.4022,0.403,0.3988,0.3988,0.3988,0.3854,0.3863,0.3896,0.3911,0.3932,0.3953,0.397,0.3988,0.3992,0.4004,0.4015,0.4041,0.4048,0.4051,0.4059,0.4022,0.4022,0.4022,0.4022,0.3901,0.3922,0.3924,0.3957,0.3966,0.3994,0.4014,0.4016,0.4042,0.4035,0.4043,0.4034,0.4055,0.4062,0.4023,0.4023,0.4023,0.4023,0.4023,0.3925,0.3937,0.3947,0.3978,0.4,0.4014,0.4039,0.4046,0.4053,0.4062,0.4073,0.4073,0.4074,0.4067,0.4067,0.4067,0.4067,0.4067,0.4067,0.3946,0.3958,0.3978,0.4001,0.4015,0.4034,0.4053,0.4067,0.4084,0.4087,0.4087,0.4089,0.4055,0.4046,0.4068,0.4068,0.4068,0.4068,0.4068,0.399,0.3981,0.4012,0.4025,0.4052,0.4072,0.4081,0.4107,0.4119,0.413,0.413,0.4103,0.4104,0.4102,0.4095,0.4128,0.4128,0.4128,0.4128,0.4011,0.4011,0.4043,0.4064,0.4085,0.4094,0.4127,0.4142,0.4156,0.4163,0.4159,0.415,0.4147,0.415,0.4146,0.4139,0.4184,0.4184,0.4184,0.4038,0.404,0.4068,0.408,0.4101,0.4118,0.4149,0.4172,0.4185,0.4186,0.4169,0.4167,0.4152,0.4147,0.4148,0.4143,0.4131,0,0]},{"header":{"parameterUnit":"m.s-1","parameterCategory":1,"la1":30.2992,"la2":30.254,"lo1":-89.0895,"lo2":-89.0443,"dy":0.0025,"dx":0.0025,"nx":19,"ny":19,"refTime":"2026-03-19T03:00:00:Z","depth":0,"parameterNumber":3,"parameterNumberName":"V-component_of_WINDS"},"data":[0,0,0,2.9404,2.9402,2.9332,2.9331,2.9233,2.9233,0,0,0,0,0,0,0,0,0,0,0,2.9424,2.9423,2.9404,2.9402,2.9332,2.9331,2.9234,2.9233,0,0,0,0,0,0,0,0,0,0,0,2.9424,2.9423,2.9422,2.9402,2.9332,2.9331,2.9234,2.9289,0,0,0,0,0,0,0,0,0,0,2.9359,2.9376,2.9423,2.9422,2.9402,2.9332,2.9331,2.9292,2.9286,2.9264,0,2.9246,0,2.9238,2.9226,2.9226,0,0,0,2.9402,2.9382,2.9364,2.9422,2.9401,2.9332,2.9363,2.9288,2.9281,2.9255,2.9245,2.9241,2.9237,2.9225,2.9225,2.9104,2.9104,0,0,2.9406,2.9409,2.9369,2.936,2.9374,2.9366,2.9361,2.9284,2.9272,2.9245,2.9239,2.9235,2.9225,2.9224,2.9105,2.9104,0,0,0,2.9417,2.9412,2.9397,2.9364,2.9352,2.9364,2.9359,2.9275,2.927,2.9238,2.9234,2.9224,2.9223,2.9106,2.9105,2.908,0,0,0,2.942,2.9419,2.9398,2.9399,2.9353,2.9313,2.9351,2.9276,2.9267,2.9234,2.9224,2.9222,2.9106,2.9105,2.9082,2.9067,0,0,0,2.9429,2.942,2.941,2.94,2.937,2.9314,2.9305,2.9274,2.9264,2.9225,2.9222,2.9107,2.9105,2.9084,2.907,2.9035,0,0,0,2.9438,2.9387,2.9409,2.9351,2.9371,2.9302,2.9305,2.9253,2.9217,2.9223,2.9106,2.9105,2.9085,2.9072,2.9037,2.9005,2.8993,0,0,2.9376,2.938,2.9345,2.9363,2.9291,2.9312,2.9235,2.9198,2.919,2.9132,2.913,2.9081,2.907,2.9036,2.8927,2.8918,0,0,0,2.9327,2.9301,2.9282,2.925,2.9222,2.9196,2.9171,2.9157,2.9109,2.9162,2.9061,2.9054,2.9033,2.9018,2.9009,2.8991,2.9099,2.9099,2.9099,2.924,2.9236,2.9178,2.9165,2.9133,2.9109,2.9081,2.9058,2.906,2.9037,2.9019,2.8954,2.8936,2.893,2.8911,2.9003,2.9003,2.9003,2.9003,2.9147,2.911,2.9117,2.9064,2.9058,2.9011,2.8985,2.8989,2.8943,2.8967,2.8949,2.8973,2.892,2.8902,2.9001,2.9002,2.9002,2.9002,2.9002,2.9088,2.9069,2.9056,2.9009,2.8973,2.8961,2.8917,2.8913,2.8909,2.8891,2.8871,2.8871,2.8869,2.8882,2.8882,2.8882,2.8882,2.8882,2.8881,2.9031,2.9017,2.8982,2.895,2.8929,2.89,2.8876,2.8854,2.8828,2.8828,2.8828,2.8832,2.8917,2.8937,2.8878,2.8878,2.8879,2.8879,2.8879,2.8934,2.8956,2.8902,2.8881,2.8843,2.8806,2.8804,2.8759,2.874,2.8718,2.8727,2.8791,2.8794,2.88,2.8817,2.873,2.873,2.873,2.873,2.8882,2.8885,2.8829,2.8796,2.8763,2.8755,2.8691,2.8672,2.8654,2.8642,2.8654,2.8677,2.8684,2.8682,2.8691,2.8706,2.8593,2.8593,2.8593,2.8821,2.8821,2.8768,2.8755,2.8725,2.8698,2.8638,2.8597,2.8581,2.8587,2.8631,2.8637,2.8673,2.8686,2.869,2.8704,2.8732,0,0]}]]